Location: Laan Hart van Zuid
(52.2563°N, 6.7904°E)
Time: 03:52:51
(UTC+01:00)

ARIANE 6 FM1 Upper Stage - Pass Details

Date: 25 January 2026
Orbit: 522 x 608 km, 62.0° (Epoch: 18 February)

Event Time Altitude Azimuth Distance (km) Brightness Sun altitude
Rises 18:33:18 0° 204° (SSW) 2,702 6.7 -13.0°
Reaches altitude 10° 18:35:38 10° 196° (SSW) 1,800 5.6 -13.4°
Maximum altitude 18:39:21 37° 128° (SE) 843 3.2 -13.9°
Enters shadow 18:41:03 25° 80° (E) 1,105 3.5 -14.2°
